Gadsden, Alabama
Current Conditions -  °F | °C
As of 4:15 PM on Thursday 18 Dec 2014 (Local Time) from KGAD Reporting Station
Overcast Overcast  
Wind Chill: 48°   Ceiling: 5000
Heat Index: 48°   Visibility: 10mi
Dew Point: 32°   Wind: 0mph
Humidity: 54%   Direction: NA
Pressure: 30.16"   Gusts: NA
Location:  34.01°N, 86.01°W
Report Text: KGAD 182215Z 00000KT 10SM OVC050 09/00 A3016 RMK AO1
Loading
Personal Weather Stations






























Interactive Weather Map New forecast layout! Learn more

10-Day Weather Forecast

Advertisements
Track Severe Weather on mobile